Voltar ao catálogo

STARLINK-5506

AtivoComunicaçõesVLEO
NORAD 55651·PAYLOAD·🇺🇸 United States

Lançado Feb 17, 2023 de Vandenberg Space Force Base

Loading…

Próximas Passagens (próximas 24 horas)

TLE

AtualizadoSource: CelesTrak SupGP

Época: Sep 14, 2026, 22:21 UTC

1 55651C 23021Z   26257.93173611  .00022018  00000+0  18451-2 0  2573
2 55651  70.0013  67.3968 0003015 273.8479 167.2891 14.98322618    12

Acompanhe STARLINK-5506 em tempo real com AllMySat

Download on the App Store